TimeCST,TemperatureF,Dew PointF,Humidity,Sea Level PressureIn,VisibilityMPH,Wind Direction,Wind SpeedMPH,Gust SpeedMPH,PrecipitationIn,Events,Conditions,WindDirDegrees,DateUTC
12:53 AM,41.0,32.0,70,30.12,10.0,NNW,19.6,33.4,N/A,,Overcast,330,2014-01-06 06:53:00
1:53 AM,36.0,27.0,70,30.17,10.0,NNW,20.7,31.1,N/A,,Overcast,340,2014-01-06 07:53:00
2:53 AM,35.1,25.0,67,30.20,10.0,NNW,23.0,32.2,N/A,,Overcast,340,2014-01-06 08:53:00
3:53 AM,33.1,23.0,66,30.23,10.0,NNW,18.4,33.4,N/A,,Overcast,330,2014-01-06 09:53:00
4:53 AM,32.0,19.9,61,30.28,10.0,NNW,26.5,35.7,N/A,,Overcast,340,2014-01-06 10:53:00
5:43 AM,30.2,19.4,64,30.30,10.0,NNW,18.4,26.5,N/A,,Partly Cloudy,340,2014-01-06 11:43:00
5:53 AM,30.9,19.9,64,30.30,10.0,NNW,13.8,-,N/A,,Partly Cloudy,340,2014-01-06 11:53:00
6:53 AM,30.0,18.0,61,30.35,10.0,NNW,19.6,28.8,N/A,,Clear,340,2014-01-06 12:53:00
7:53 AM,28.9,18.0,64,30.40,10.0,NNW,13.8,21.9,N/A,,Clear,340,2014-01-06 13:53:00
8:53 AM,30.9,17.1,57,30.45,10.0,NNW,17.3,28.8,N/A,,Clear,330,2014-01-06 14:53:00
9:53 AM,33.1,15.1,48,30.47,10.0,North,20.7,31.1,N/A,,Clear,350,2014-01-06 15:53:00
10:53 AM,34.0,12.9,42,30.47,10.0,NNW,18.4,29.9,N/A,,Clear,330,2014-01-06 16:53:00
11:53 AM,36.0,10.0,34,30.45,10.0,NNW,13.8,25.3,N/A,,Clear,330,2014-01-06 17:53:00
12:53 PM,37.0,9.0,31,30.44,10.0,NNW,15.0,23.0,N/A,,Clear,330,2014-01-06 18:53:00
1:53 PM,37.9,9.0,30,30.43,10.0,NW,18.4,27.6,N/A,,Clear,320,2014-01-06 19:53:00
2:53 PM,35.1,6.1,30,30.45,10.0,NNW,17.3,29.9,N/A,,Clear,330,2014-01-06 20:53:00
3:53 PM,34.0,5.0,30,30.48,10.0,NNW,12.7,21.9,N/A,,Clear,330,2014-01-06 21:53:00
4:53 PM,32.0,5.0,32,30.49,10.0,NNW,13.8,23.0,N/A,,Partly Cloudy,330,2014-01-06 22:53:00
5:53 PM,30.9,3.9,32,30.51,10.0,NNW,12.7,19.6,N/A,,Clear,330,2014-01-06 23:53:00
6:53 PM,30.0,3.0,32,30.55,10.0,NNW,9.2,18.4,N/A,,Clear,330,2014-01-07 00:53:00
7:53 PM,28.9,3.9,35,30.58,10.0,NNW,12.7,-,N/A,,Clear,330,2014-01-07 01:53:00
8:53 PM,28.0,3.0,34,30.58,10.0,NNW,13.8,-,N/A,,Clear,340,2014-01-07 02:53:00
9:53 PM,27.0,1.9,34,30.60,10.0,North,13.8,-,N/A,,Clear,350,2014-01-07 03:53:00
10:53 PM,26.1,3.0,37,30.60,10.0,North,9.2,-,N/A,,Clear,350,2014-01-07 04:53:00
11:53 PM,25.0,3.0,39,30.60,10.0,North,5.8,-,N/A,,Clear,350,2014-01-07 05:53:00